SCP
0 0 0 0 0 0 0 0 0 0 0 0 0 0 0 0 0 0 0 0 0 -0
0 0 0 0 0 0 0 0 0 0 0 0 0 0 0 0 0 0 0 0 0 0
0 0 0 0 0 0 0 0 0 -0 -0 0 -0 0 0 0 0 0 0 0 0 0
0 0 0 0 0 0 0 0 0 -0 0 0 -0 -0 0 0 0 0 0 0 -0 -0
0 0 0 0 0 0 0 0 0 0 0 0 -0 -0 -0 -0 0 0 0 -0 -0 0
0 0 0 0 0 0 0 0 0 0 0 0 -0 -0 -0 0 -0 0 0 0 0 -0
0 0 0 0 0 0 0 0 0 0 0 0 0 -0 -0 -0 0 -0 0 0 0 -0
0 0 0 0 0 0 0 0 0 0 0 0 0 0 -0 0 0 0 0 0 0 0
0 0 0 0 0 0 0 0 -0 0 0 0 0 0 -0 -0 -0 0 -0 0 0 0
0 0 0 0 0 0 0 -0 0 0 0 0 0 0 0 -0 -0 0 0 0 0 0
0 0 0 0 0 0 -0 -0 0 0 0 0 0 0 0 0 0 -0 -0 0 0 0
-0 0 0 0 0 -0 -0 -0 0 0 0 0 0 0 0 0 0 -0 -0 0 -0 -0
-0 -0 0 0 -0 0 -0 -0 -0 -0 -0 0 0 0 0 0 0 0 -0 0 -0 -0
-0 -0 0 -0 0 -0 -0 -0 -0 0 0 0 0 0 0 0 0 0 -0 -0 0 0
Wind_Speed_500mb
31 29 27 27 23 20 21 23 23 20 20 20 20 18 14 13 15 14 15 18 20 24
28 27 26 23 22 20 20 20 18 17 17 18 19 15 13 14 13 12 13 12 17 21
25 23 20 18 15 20 18 16 14 16 18 17 16 15 13 11 9 10 12 15 20 20
23 21 14 10 11 12 13 12 12 14 15 15 16 16 10 10 10 8 9 11 17 20
23 15 8 10 11 13 12 13 12 15 15 16 15 9 5 9 7 9 10 16 16 20
20 7 10 11 14 13 16 19 21 19 18 12 12 10 7 7 7 9 10 9 10 10
13 7 14 13 13 15 22 23 21 18 15 13 11 8 6 6 7 10 7 6 2 7
9 7 13 13 13 16 25 25 22 20 15 16 11 6 3 3 4 8 8 7 10 15
12 11 13 14 14 16 26 27 25 20 13 10 7 6 4 3 7 7 7 10 13 15
10 13 10 13 18 16 21 28 23 22 17 13 11 9 5 7 9 9 5 9 12 15
17 18 12 10 16 16 18 24 24 20 16 15 13 9 8 11 7 6 8 8 5 7
19 15 18 11 12 18 19 23 24 19 17 18 15 12 10 11 10 10 9 6 7 5
24 20 15 12 11 20 19 20 25 21 18 14 15 18 12 13 11 10 10 10 10 8
28 23 19 14 14 22 22 21 23 22 19 18 18 17 16 14 13 12 14 16 17 13
Wind_Direction_500mb
182 189 197 207 217 224 242 257 267 261 247 227 231 251 235 216 215 236 232 232 224 223
192 201 205 210 225 233 249 259 255 242 213 212 230 231 211 218 235 230 236 235 230 232
191 204 215 209 225 243 246 235 230 209 201 211 218 196 198 215 218 244 248 240 234 221
174 175 183 208 219 204 198 198 193 195 199 199 186 186 200 208 240 244 227 240 236 232
158 164 187 197 197 193 191 178 174 167 162 157 156 172 215 235 251 242 254 264 261 232
165 180 179 179 183 186 174 167 157 153 153 164 184 209 243 250 237 241 238 232 235 241
147 159 174 179 183 185 173 166 161 164 163 167 181 214 236 220 219 211 184 183 185 141
141 156 175 180 175 176 174 171 161 153 170 188 196 191 209 214 208 172 179 181 130 129
161 149 171 183 177 175 178 177 179 164 176 182 182 200 216 182 180 173 177 194 185 176
180 172 162 169 179 174 176 188 183 181 184 185 203 241 228 201 213 221 220 171 189 224
197 183 187 155 177 183 183 182 186 190 202 212 216 241 195 194 200 192 200 181 212 224
194 196 201 186 188 190 181 184 181 196 213 227 232 204 204 177 171 171 187 161 122 126
200 206 200 205 209 193 184 187 191 199 208 215 199 199 184 184 188 192 204 212 178 161
205 213 209 209 212 196 194 194 196 207 221 211 199 179 178 188 204 222 220 204 194 183
Wind_Speed_850mb
31 29 27 27 23 20 21 23 23 20 20 20 20 18 14 13 15 14 15 18 20 24
28 27 26 23 22 20 20 20 18 17 17 18 19 15 13 14 13 12 13 12 17 21
25 23 20 18 15 20 18 16 14 16 18 17 16 15 13 11 9 10 12 15 20 20
23 21 14 10 11 12 13 12 12 14 15 15 16 16 10 10 10 8 9 11 17 20
23 15 8 10 11 13 12 13 12 15 15 16 15 9 5 9 7 9 10 16 16 20
20 7 10 11 14 13 16 19 21 19 18 12 12 10 7 7 7 9 10 9 10 10
13 7 14 13 13 15 22 23 21 18 15 13 11 8 6 6 7 10 7 6 2 7
9 7 13 13 13 16 25 25 22 20 15 16 11 6 3 3 4 8 8 7 10 15
12 11 13 14 14 16 26 27 25 20 13 10 7 6 4 3 7 7 7 10 13 15
10 13 10 13 18 16 21 28 23 22 17 13 11 9 5 7 9 9 5 9 12 15
17 18 12 10 16 16 18 24 24 20 16 15 13 9 8 11 7 6 8 8 5 7
19 15 18 11 12 18 19 23 24 19 17 18 15 12 10 11 10 10 9 6 7 5
24 20 15 12 11 20 19 20 25 21 18 14 15 18 12 13 11 10 10 10 10 8
28 23 19 14 14 22 22 21 23 22 19 18 18 17 16 14 13 12 14 16 17 13
Wind_Direction_850mb
182 189 197 207 217 224 242 257 267 261 247 227 231 251 235 216 215 236 232 232 224 223
192 201 205 210 225 233 249 259 255 242 213 212 230 231 211 218 235 230 236 235 230 232
191 204 215 209 225 243 246 235 230 209 201 211 218 196 198 215 218 244 248 240 234 221
174 175 183 208 219 204 198 198 193 195 199 199 186 186 200 208 240 244 227 240 236 232
158 164 187 197 197 193 191 178 174 167 162 157 156 172 215 235 251 242 254 264 261 232
165 180 179 179 183 186 174 167 157 153 153 164 184 209 243 250 237 241 238 232 235 241
147 159 174 179 183 185 173 166 161 164 163 167 181 214 236 220 219 211 184 183 185 141
141 156 175 180 175 176 174 171 161 153 170 188 196 191 209 214 208 172 179 181 130 129
161 149 171 183 177 175 178 177 179 164 176 182 182 200 216 182 180 173 177 194 185 176
180 172 162 169 179 174 176 188 183 181 184 185 203 241 228 201 213 221 220 171 189 224
197 183 187 155 177 183 183 182 186 190 202 212 216 241 195 194 200 192 200 181 212 224
194 196 201 186 188 190 181 184 181 196 213 227 232 204 204 177 171 171 187 161 122 126
200 206 200 205 209 193 184 187 191 199 208 215 199 199 184 184 188 192 204 212 178 161
205 213 209 209 212 196 194 194 196 207 221 211 199 179 178 188 204 222 220 204 194 183